Location: Newark
(41.0400°S, 62.7845°W)
Time: 23:07:10
(UTC+00:00)

Vanguard 2 - Pass Details

Date: 07 December 2021
Orbit: 554 x 2935 km, 32.9° (Epoch: 27 January)

Event Time Altitude Azimuth Distance (km) Brightness Sun altitude
Rises 01:15:22 0° 337° (NNW) 6,086 11.8 -15.5°
Reaches altitude 10° 01:20:00 10° 347° (NNW) 5,349 11.4 -16.0°
Maximum altitude 01:33:01 29° 38° (NE) 4,372 10.7 -17.5°
Drops below altitude 10° 01:46:31 10° 89° (E) 5,593 11.6 -18.9°
Sets 01:51:25 0° 98° (E) 6,405 12.0 -19.4°
